• In Belarus
  • List of Countries
  • For 7 days
  • Water Temperature
  • Satellite Maps
  • Weather Map
  • Weather Widgets
  • user-avatar
    Login

    Hourly Weather Capinota

    Today, 17 October, Wednesday

    Time Temperature Precipitation Wind Pressure Humidity
    00:00 +19°C° 0.1 mm 3 mps 558 mmHg 58%
    01:00 +18°C° 0.1 mm 3 mps 558 mmHg 59%
    02:00 +18°C° 0 mm 2 mps 557 mmHg 59%
    03:00 +18°C° 0.1 mm 2 mps 557 mmHg 58%
    04:00 +18°C° 0.1 mm 2 mps 557 mmHg 57%
    05:00 +17°C° 0.1 mm 2 mps 557 mmHg 56%
    06:00 +18°C° 0 mm 2 mps 558 mmHg 50%
    07:00 +20°C° 0 mm 2 mps 559 mmHg 43%
    08:00 +21°C° 0 mm 2 mps 561 mmHg 34%
    09:00 +23°C° 0 mm 2 mps 561 mmHg 30%
    10:00 +25°C° 0 mm 1 mps 561 mmHg 27%
    11:00 +26°C° 0 mm 1 mps 562 mmHg 23%
    12:00 +27°C° 0.1 mm 2 mps 561 mmHg 23%
    13:00 +27°C° 0.1 mm 3 mps 561 mmHg 23%
    14:00 +28°C° 0.1 mm 4 mps 561 mmHg 23%
    15:00 +27°C° 0.1 mm 4 mps 560 mmHg 28%
    16:00 +25°C° 0.1 mm 4 mps 559 mmHg 32%
    17:00 +23°C° 0.1 mm 5 mps 558 mmHg 37%
    18:00 +22°C° 0.1 mm 4 mps 558 mmHg 40%
    19:00 +22°C° 0.1 mm 4 mps 558 mmHg 44%
    20:00 +21°C° 0.1 mm 4 mps 558 mmHg 48%
    21:00 +20°C° 0 mm 3 mps 559 mmHg 50%
    22:00 +20°C° 0 mm 3 mps 559 mmHg 52%
    23:00 +19°C° 0 mm 3 mps 559 mmHg 54%

    Tomorrow, 18 October, Thursday

    Time Temperature Precipitation Wind Pressure Humidity
    00:00 +19°C° 0 mm 2 mps 559 mmHg 54%
    01:00 +18°C° 0 mm 2 mps 558 mmHg 55%
    02:00 +19°C° 0 mm 1 mps 558 mmHg 55%
    03:00 +19°C° 0 mm 1 mps 558 mmHg 56%
    04:00 +18°C° 0 mm 1 mps 558 mmHg 56%
    05:00 +18°C° 0 mm 1 mps 558 mmHg 56%
    06:00 +19°C° 0 mm 1 mps 558 mmHg 50%
    07:00 +21°C° 0 mm 1 mps 559 mmHg 45%
    08:00 +22°C° 0 mm 1 mps 560 mmHg 40%
    09:00 +23°C° 0 mm 2 mps 561 mmHg 36%
    10:00 +25°C° 0 mm 2 mps 561 mmHg 32%
    11:00 +26°C° 0 mm 3 mps 562 mmHg 28%
    12:00 +27°C° 0.1 mm 4 mps 562 mmHg 27%
    13:00 +28°C° 0.1 mm 4 mps 562 mmHg 27%
    14:00 +29°C° 0.1 mm 5 mps 561 mmHg 26%
    15:00 +28°C° 0.1 mm 6 mps 561 mmHg 30%
    16:00 +27°C° 0.1 mm 6 mps 560 mmHg 34%
    17:00 +26°C° 0.1 mm 6 mps 560 mmHg 38%
    18:00 +23°C° 0.3 mm 6 mps 559 mmHg 44%
    19:00 +22°C° 0.3 mm 5 mps 559 mmHg 49%
    20:00 +21°C° 0.3 mm 4 mps 559 mmHg 55%
    21:00 +20°C° 0.4 mm 4 mps 560 mmHg 56%
    22:00 +20°C° 0.4 mm 3 mps 560 mmHg 58%
    23:00 +19°C° 0.4 mm 2 mps 560 mmHg 60%

    Day after tomorrow, 19 October, Friday

    Time Temperature Precipitation Wind Pressure Humidity
    00:00 +19°C° 0.3 mm 2 mps 560 mmHg 60%
    01:00 +20°C° 0.3 mm 1 mps 559 mmHg 61%
    02:00 +19°C° 0.3 mm 1 mps 559 mmHg 62%
    03:00 +19°C° 0.1 mm 1 mps 558 mmHg 62%
    04:00 +19°C° 0.1 mm 1 mps 558 mmHg 61%
    05:00 +19°C° 0.1 mm 1 mps 558 mmHg 61%
    06:00 +19°C° 0 mm 1 mps 559 mmHg 58%
    07:00 +20°C° 0 mm 1 mps 560 mmHg 54%
    08:00 +21°C° 0 mm 1 mps 560 mmHg 51%
    09:00 +22°C° 0.1 mm 1 mps 561 mmHg 46%
    10:00 +24°C° 0.1 mm 2 mps 561 mmHg 41%
    11:00 +25°C° 0.1 mm 2 mps 562 mmHg 35%
    12:00 +25°C° 0.2 mm 4 mps 562 mmHg 35%
    13:00 +26°C° 0.2 mm 5 mps 561 mmHg 35%
    14:00 +26°C° 0.2 mm 6 mps 561 mmHg 35%
    15:00 +24°C° 0.7 mm 6 mps 560 mmHg 41%
    16:00 +23°C° 0.7 mm 5 mps 560 mmHg 47%
    17:00 +21°C° 0.7 mm 5 mps 559 mmHg 52%
    18:00 +21°C° 0.8 mm 4 mps 559 mmHg 57%
    19:00 +20°C° 0.8 mm 3 mps 559 mmHg 62%
    20:00 +19°C° 0.8 mm 3 mps 559 mmHg 66%
    21:00 +19°C° 0.1 mm 2 mps 560 mmHg 68%
    22:00 +18°C° 0.1 mm 2 mps 560 mmHg 69%
    23:00 +18°C° 0.1 mm 2 mps 560 mmHg 70%

    20 October, Saturday

    Time Temperature Precipitation Wind Pressure Humidity
    00:00 +18°C° 0.3 mm 2 mps 560 mmHg 70%
    01:00 +19°C° 0.3 mm 1 mps 559 mmHg 70%
    02:00 +19°C° 0.3 mm 1 mps 559 mmHg 69%
    03:00 +19°C° 0.3 mm 1 mps 559 mmHg 69%
    04:00 +18°C° 0.3 mm 1 mps 559 mmHg 68%
    05:00 +18°C° 0.3 mm 1 mps 558 mmHg 68%
    06:00 +19°C° 0.1 mm 1 mps 559 mmHg 66%
    07:00 +19°C° 0.1 mm 1 mps 560 mmHg 63%
    08:00 +18°C° 0.1 mm 2 mps 560 mmHg 61%
    09:00 +19°C° 0.1 mm 2 mps 560 mmHg 58%
    10:00 +20°C° 0.1 mm 2 mps 560 mmHg 54%
    11:00 +21°C° 0.1 mm 2 mps 561 mmHg 50%
    12:00 +22°C° 0.3 mm 3 mps 560 mmHg 48%
    13:00 +24°C° 0.3 mm 3 mps 560 mmHg 45%
    14:00 +25°C° 0.3 mm 4 mps 559 mmHg 42%
    15:00 +23°C° 0.8 mm 4 mps 559 mmHg 46%
    16:00 +22°C° 0.8 mm 4 mps 558 mmHg 49%
    17:00 +22°C° 0.8 mm 4 mps 558 mmHg 53%
    18:00 +21°C° 1.6 mm 3 mps 558 mmHg 58%
    19:00 +20°C° 1.6 mm 2 mps 558 mmHg 62%
    20:00 +20°C° 1.6 mm 1 mps 558 mmHg 67%
    21:00 +19°C° 0.2 mm 1 mps 558 mmHg 68%
    22:00 +19°C° 0.2 mm 1 mps 558 mmHg 68%
    23:00 +19°C° 0.2 mm 1 mps 559 mmHg 68%

    21 October, Sunday

    Time Temperature Precipitation Wind Pressure Humidity
    00:00 +19°C° 0.1 mm 1 mps 558 mmHg 69%
    01:00 +17°C° 0.1 mm 0 mps 558 mmHg 69%
    02:00 +17°C° 0.1 mm 0 mps 557 mmHg 70%
    03:00 +16°C° 0.1 mm 0 mps 557 mmHg 70%
    04:00 +18°C° 0.1 mm 1 mps 557 mmHg 71%
    05:00 +18°C° 0.1 mm 1 mps 557 mmHg 72%
    06:00 +18°C° 0.1 mm 1 mps 558 mmHg 69%
    07:00 +19°C° 0.1 mm 1 mps 559 mmHg 67%
    08:00 +19°C° 0.1 mm 1 mps 559 mmHg 64%
    09:00 +20°C° 0.1 mm 1 mps 560 mmHg 58%
    10:00 +21°C° 0.1 mm 2 mps 560 mmHg 53%
    11:00 +23°C° 0.1 mm 2 mps 560 mmHg 47%
    12:00 +24°C° 0.1 mm 3 mps 560 mmHg 45%
    13:00 +24°C° 0.1 mm 3 mps 559 mmHg 44%
    14:00 +25°C° 0.1 mm 4 mps 559 mmHg 42%
    15:00 +23°C° 0.3 mm 4 mps 558 mmHg 44%
    16:00 +23°C° 0.3 mm 4 mps 558 mmHg 46%
    17:00 +23°C° 0.3 mm 4 mps 558 mmHg 48%
    18:00 +22°C° 0.3 mm 4 mps 558 mmHg 52%
    19:00 +21°C° 0.3 mm 4 mps 558 mmHg 56%
    20:00 +20°C° 0.3 mm 3 mps 558 mmHg 61%
    21:00 +19°C° 0.1 mm 3 mps 558 mmHg 62%
    22:00 +19°C° 0.1 mm 2 mps 558 mmHg 64%
    23:00 +19°C° 0.1 mm 1 mps 558 mmHg 66%

    22 October, Monday

    Time Temperature Precipitation Wind Pressure Humidity
    00:00 +19°C° 0.1 mm 1 mps 558 mmHg 67%
    01:00 +19°C° 0.1 mm 1 mps 557 mmHg 68%
    02:00 +19°C° 0.1 mm 1 mps 557 mmHg 68%
    03:00 +18°C° 0 mm 1 mps 557 mmHg 69%
    04:00 +18°C° 0 mm 1 mps 557 mmHg 69%
    05:00 +18°C° 0 mm 1 mps 557 mmHg 70%
    06:00 +18°C° 0 mm 1 mps 558 mmHg 67%
    07:00 +19°C° 0 mm 1 mps 558 mmHg 65%
    08:00 +19°C° 0 mm 1 mps 559 mmHg 62%
    09:00 +20°C° 0.1 mm 1 mps 559 mmHg 58%
    10:00 +20°C° 0.1 mm 2 mps 559 mmHg 53%
    11:00 +21°C° 0.1 mm 2 mps 560 mmHg 48%
    12:00 +22°C° 0.1 mm 3 mps 559 mmHg 46%
    13:00 +24°C° 0.1 mm 3 mps 559 mmHg 44%
    14:00 +25°C° 0.1 mm 4 mps 558 mmHg 42%
    15:00 +23°C° 0.3 mm 4 mps 558 mmHg 45%
    16:00 +22°C° 0.3 mm 5 mps 557 mmHg 48%
    17:00 +22°C° 0.3 mm 5 mps 557 mmHg 52%
    18:00 +21°C° 0.2 mm 4 mps 557 mmHg 56%
    19:00 +20°C° 0.2 mm 4 mps 557 mmHg 61%
    20:00 +19°C° 0.2 mm 3 mps 557 mmHg 65%
    21:00 +18°C° 0.2 mm 3 mps 558 mmHg 66%
    22:00 +18°C° 0.2 mm 2 mps 558 mmHg 67%
    23:00 +18°C° 0.2 mm 2 mps 558 mmHg 68%
    Show more